Location: *
(31.6819°N, 34.9742°E)
Time: 08:31:12
(UTC+00:00)

Daily predictions for brighter satellites

Satellite Brightness Start Highest point End
(mag) Time Altitude Azimuth Time Altitude Azimuth Time Altitude Azimuth
Cosmos 2233 Rocket 4.5 17:01:37 10° SSE 17:07:25 41° E 17:13:14 10° NNE
Cosmos 2082 3.8 17:04:07 10° NNW 17:09:51 72° ENE 17:15:33 10° SSE
Cosmos 1939 Rocket 3.6 17:06:41 10° S 17:10:40 58° W 17:14:43 10° NNW
Cosmos 2263 Rocket 4.3 17:11:20 10° NE 17:12:33 11° NE 17:13:46 10° ENE
NOAA 11 4.5 17:08:24 10° S 17:13:48 73° WSW 17:19:14 10° NNW
Cosmos 1271 Rocket 3.3 17:11:30 10° SSE 17:15:02 36° E 17:18:37 10° NNE
Cosmos 2058 4.2 17:12:52 10° SE 17:16:04 22° E 17:19:17 10° NE
HJ-1C 4.5 17:13:37 10° S 17:16:52 46° W 17:20:06 10° NNW
SPOT 3 Rocket 3.6 17:16:00 10° SSE 17:21:10 69° ENE 17:26:22 10° N
ADEOS Rocket 3.6 17:17:34 10° NE 17:22:12 27° E 17:26:48 10° SSE
Cosmos 1703 4.3 17:21:19 10° SSW 17:25:11 50° W 17:29:02 10° N
BREEZE-M DEB (TANK) 4.4 17:18:10 10° WSW 17:25:29 46° NW 17:28:15 10° NNE
Meteor 2-10 Rocket 3.8 17:20:21 10° N 17:25:51 63° E 17:31:31 10° SSE
Cosmos 44 Rocket 4.3 17:29:31 10° SSE 17:33:51 28° ESE 17:38:08 10° NE
Cosmos 44 3.8 17:29:23 10° SSW 17:34:43 72° WNW 17:39:53 10° NNE
Cosmos 2221 2.5 17:31:53 10° N 17:36:15 72° E 17:40:36 10° SSE
SL-4 R/B 3.7 17:33:51 10° SSE 17:37:07 18° SE 17:40:25 10° E
Cosmos 1110 Rocket 4.0 17:33:10 10° NNW 17:38:27 82° ENE 17:43:45 10° SSE
CZ-2C R/B 4.3 17:36:37 13° ESE 17:40:26 27° ENE 17:44:47 10° NNE
Cosmos 1076 Rocket 3.6 17:40:18 10° S 17:44:40 86° W 17:49:03 10° N
Delta 7925 Rocket 3.9 17:43:22 10° WSW 17:48:02 45° S 17:51:58 18° ESE
Cosmos 1242 Rocket 3.5 17:48:16 19° SE 17:49:57 28° E 17:53:08 10° NNE
Cosmos 2360 Rocket 3.4 17:50:32 17° SE 17:52:22 20° E 17:56:23 10° NE
Aureole 1 Rocket 3.2 17:48:42 10° S 17:52:47 65° ESE 17:58:13 10° NNE
DELTA 2 R/B (1) 3.5 17:47:58 10° SW 17:53:31 67° SSE 17:59:04 10° ENE
SJ-6B 4.0 17:53:12 10° S 17:56:43 38° W 18:00:13 10° NNW
Cosmos 1980 Rocket 4.0 17:51:49 10° SW 17:56:54 34° WNW 18:02:00 10° N
GMS 1 Rocket B 4.3 17:53:46 10° WSW 17:57:48 60° S 18:00:01 23° ESE
MetOp-A 4.4 17:53:53 17° SE 17:57:49 51° ENE 18:02:59 10° N
Cosmos 1464 Rocket 4.4 17:53:49 13° SSE 17:59:03 41° E 18:04:51 10° NNE
BREEZE M DEB (TANK) 3.5 17:56:15 10° NW 18:01:05 28° NNE 18:02:39 17° ENE
Okean 3 Rocket 3.6 17:57:09 10° S 18:01:38 71° E 18:06:10 10° N
MTI 3.7 17:59:05 10° NNE 18:02:12 57° E 18:03:55 23° S
Resurs 1-3 3.6 18:00:48 15° SSE 18:04:24 88° WSW 18:08:49 10° NNW
Tsikada Rocket 4.5 17:59:09 10° NNW 18:05:24 63° W 18:11:32 10° S
Cosmos 2151 3.3 18:03:43 22° SSE 18:06:08 46° E 18:10:14 10° NNE
Tiangong 2 4.0 18:08:44 10° NNW 18:09:53 12° N 18:11:03 10° NNE
SL-08 RB Rocket 3.6 18:11:12 21° SSE 18:14:09 87° ENE 18:18:39 10° N
H-2A R/B 2.6 18:15:53 11° S 18:20:57 59° W 18:26:18 10° NNW
Cosmos 1340 Rocket 2.8 18:17:27 10° N 18:21:30 63° E 18:22:43 41° SE
Cosmos 2322 Rocket 2.2 18:15:58 10° SSW 18:21:40 89° WNW 18:27:24 10° NNE
Cosmos 1869 3.1 18:17:51 10° N 18:21:49 73° E 18:23:05 41° SSE
Cosmos 1766 Rocket 3.4 18:19:32 19° S 18:22:38 88° E 18:26:58 10° N
BREEZE-M DEB (TANK) 1.8 18:23:08 10° NW 18:25:06 48° W 18:25:06 48° W
CZ-2C R/B 2.8 18:20:38 10° NNE 18:25:37 46° E 18:27:20 34° SSE
SL-16 R/B 2.5 18:21:12 10° SSW 18:26:49 69° WNW 18:32:29 10° NNE
Cosmos 1891 Rocket 4.5 18:22:43 15° S 18:28:04 74° E 18:34:32 10° N
Cosmos 1238 Rocket 4.0 18:25:10 15° S 18:30:31 80° E 18:37:13 10° N
Cosmos 1408 Rocket 3.4 18:29:10 39° SSE 18:30:40 71° E 18:34:56 10° N
GMS 1 Rocket 4.4 18:29:38 10° W 18:33:33 60° S 18:34:14 52° SE
ARGOS 4.3 18:35:06 12° SSW 18:39:47 39° W 18:44:50 10° NNW
Cosmos 489 Rocket 4.4 18:34:22 10° NNW 18:40:41 71° ENE 18:43:04 39° SE
USA 229 DEB 3.7 18:36:34 18° S 18:41:16 52° ESE 18:47:45 10° NE
USA 229 3.7 18:36:57 20° S 18:41:23 52° ESE 18:47:51 10° NE
Cosmos 1825 4.2 18:43:59 17° NE 18:43:59 17° NE 18:45:15 10° NE
Resurs 01 Rocket 2.8 18:41:05 20° SSW 18:43:42 38° W 18:47:51 10° NNW
ISS -1.3 18:42:05 10° W 18:44:51 24° NW 18:47:38 10° NNE
Cosmos 407 Rocket 3.9 18:45:20 41° E 18:45:20 41° E 18:50:08 10° NNE
BREEZE-M DEB (TANK) 3.7 18:43:46 10° WSW 18:47:00 65° NW 18:56:53 10° NE
Thor Agena Rocket 3.4 18:45:13 10° NNE 18:50:11 59° ESE 18:50:44 56° SE
Cosmos 371 Rocket 4.1 18:45:43 10° NNW 18:50:22 46° WSW 18:52:17 30° SSW
ERBS 3.2 18:47:30 10° NW 18:50:10 44° W 18:50:10 44° W
EO 1 Del DPAF 3.5 18:53:13 10° N 18:56:59 64° WNW 18:57:18 60° WSW
Cosmos 2263 Rocket 2.1 18:51:28 10° NNW 18:57:12 89° WSW 18:58:34 54° SSE
ERS-1 Rocket 3.2 18:57:30 51° E 18:57:48 52° ENE 19:02:41 10° N
Cosmos 2237 4.0 18:57:19 44° S 18:59:09 76° ESE 19:04:50 10° NNE
Cosmos 921 Rocket 3.4 18:55:45 10° N 18:59:26 50° NE 18:59:26 50° NE
Cosmos 614 Rocket 4.3 19:03:02 48° ENE 19:03:02 48° ENE 19:07:11 10° NNE
Iridium 4 Rocket 4.0 18:56:30 10° N 19:02:23 70° W 19:04:39 38° SSW
H-2A ROCKET BODY 3.3 18:33:13 10° W 19:03:02 61° SSW 19:05:26 44° SSE
Terra 3.1 19:05:33 27° ENE 19:05:33 27° ENE 19:08:55 10° NNE
Cosmos 1892 4.3 19:09:56 28° WSW 19:10:49 32° W 19:14:18 10° NNW
SPOT 1/Viking Rocket 3.4 19:10:57 69° E 19:11:06 70° ENE 19:16:16 10° N
Cosmos 1151 Rocket 3.1 19:06:55 10° N 19:11:04 74° WNW 19:11:04 74° WNW
SL-4 R/B 2.9 19:11:44 10° WSW 19:16:30 59° NW 19:21:16 10° NE
Cosmos 304 Rocket 3.9 19:11:52 10° NNW 19:16:39 65° WSW 19:16:44 65° WSW
Cosmos 2034 Rocket 4.4 19:13:40 27° SSW 19:16:59 59° W 19:23:11 10° N
COSMOS 2428 3.9 19:19:43 29° ENE 19:19:43 29° ENE 19:22:53 10° NE
Cosmos 1328 Rocket 4.1 19:14:20 10° NNW 19:18:31 51° W 19:18:31 51° W
Timation 1 Rocket 4.1 19:14:20 10° NNW 19:20:21 87° ENE 19:20:55 75° SSE
Cosmos 1461 4.1 19:16:46 10° NW 19:19:47 34° W 19:19:47 34° W
Nadezhda 4 Rocket 3.9 19:15:30 10° N 19:21:49 90° W 19:22:47 66° S
Cosmos 1500 Rocket 3.9 19:22:17 63° NW 19:22:17 63° NW 19:26:19 10° N
Cosmos 1992 Rocket 4.2 19:18:00 10° NNW 19:23:10 63° WSW 19:23:27 62° WSW
Cosmos 2360 Rocket 3.3 19:32:09 18° SW 19:35:58 42° WNW 19:41:17 10° N
Cosmos 1092 Rocket 3.8 19:32:38 10° N 19:38:51 79° E 19:38:51 79° E
DELTA 2 R/B (1) 4.5 19:34:46 10° W 19:40:09 46° NNW 19:43:25 22° NE
USA 267 3.1 19:44:17 70° SSW 19:44:42 72° SW 19:51:15 10° NW
SPOT 5 3.4 19:47:10 58° WNW 19:47:10 58° WNW 19:51:29 10° NNW
Cosmos 1634 Rocket 4.0 19:52:37 74° W 19:52:48 75° W 19:59:04 10° N
NOSS 3-1 (C) 3.9 19:53:47 42° W 19:55:03 50° NW 20:00:54 10° NNE
Meteor 2-3 Rocket 4.2 20:00:42 54° W 20:00:43 54° W 20:06:25 10° N
Cosmos 2219 Rocket 2.8 20:08:15 52° N 20:08:15 52° N 20:12:32 10° NNE
Cosmos 2333 Rocket 2.8 20:10:24 53° N 20:10:24 53° N 20:14:45 10° NNE
Cosmos 2026 Rocket 4.2 20:07:23 10° N 20:12:37 66° NNW 20:12:37 66° NNW
Cosmos 2278 Rocket 4.1 20:15:58 10° NNE 20:19:15 20° NE 20:19:15 20° NE
NOSS 3-1 (A) 4.3 20:35:26 39° NW 20:35:28 39° NW 20:41:05 10° NNE
Cosmos 1844 Rocket 3.8 20:31:20 10° NNW 20:35:04 40° NW 20:35:04 40° NW
Kakehashi 4.3 20:30:40 10° W 20:40:21 59° WSW 20:40:21 59° WSW
Terra 4.1 20:44:26 18° WNW 20:44:26 18° WNW 20:46:17 10° NW
Mayak 1.4 20:41:01 10° N 20:42:20 19° N 20:42:20 19° N
COSMOS 2455 4.3 21:05:18 29° NE 21:05:18 29° NE 21:08:09 10° NNE
SL-16 R/B 4.2 21:06:15 19° NE 21:06:15 19° NE 21:07:59 10° NE
ATLAS CENTAUR R/B 4.4 20:59:48 10° N 21:00:58 14° NNE 21:00:58 14° NNE
SeaSat 1 4.3 20:59:57 10° NNE 21:02:16 27° N 21:02:16 27° N
BREEZE-M DEB (TANK) 4.1 20:47:29 10° NW 21:05:45 65° NNE 21:06:08 64° NE
Cosmos 2237 Rocket 3.7 21:22:48 32° NNW 21:22:48 32° NNW 21:26:11 10° N
Cosmos 2278 Rocket 4.2 21:59:04 10° NW 22:01:04 21° NW 22:01:04 21° NW
Lacrosse 5 4.2 22:06:14 10° N 22:09:44 19° NE 22:09:44 19° NE
Lacrosse 5 rocket 4.3 22:20:05 10° NNW 22:21:13 15° N 22:21:13 15° N
Cosmos 2369 Rocket 4.2 22:27:08 10° NNE 22:31:25 21° ENE 22:32:05 21° ENE
Resurs 1-4 Rocket 4.2 22:27:12 10° NE 22:29:31 20° ENE 22:29:31 20° ENE
Lacrosse 4 Rocket 4.4 22:36:58 14° NNW 22:36:58 14° NNW 22:37:53 10° NNW
SL-16 R/B 4.1 22:48:07 21° NW 22:48:07 21° NW 22:51:19 10° N
CZ-2D R/B 3.6 22:45:37 10° NNE 22:49:02 31° ENE 22:49:02 31° ENE
SL-16 R/B 3.5 22:56:41 39° E 22:57:11 40° ENE 23:02:53 10° N
Cosmos 1943 4.0 23:07:51 47° NNE 23:07:51 47° NNE 23:11:46 10° NNE
Cosmos 1709 Rocket 4.4 23:10:54 10° N 23:15:40 55° NNW 23:15:40 55° NNW
ATLAS 2AS CENTAUR R/B 3.2 23:17:02 61° WNW 23:17:28 61° WNW 23:25:30 10° NNE
USA 238 DEB 4.1 23:15:53 10° NNW 23:23:05 64° ENE 23:25:38 42° ESE
USA 238 4.1 23:15:59 10° NNW 23:23:11 63° ENE 23:25:50 40° ESE
NPP 4.2 23:30:54 10° N 23:35:06 54° N 23:35:06 54° N
Okean 2 Rocket 4.4 23:40:26 37° NE 23:40:26 37° NE 23:43:26 10° NNE
Lacrosse 5 4.2 23:48:09 10° NW 23:48:50 14° NW 23:48:50 14° NW
